Flag for Lebanon Weather past 2 weeks in Sidon, Lebanon

Now
82 °F

Passing clouds.


Feels Like: 89 °F
Forecast: 79 / 86 °F
Wind: 5 mph from North

Location: Beirut Airport

Current Time: Aug 31, 2014 at 6:12:45 AM

Latest Report: Aug 31, 2014 at 5:00 AM


Visibility: 4 mi

Pressure: 29.80 "Hg

Humidity: 79%

Dew point: 75 °F

Location of SidonLocation

Historic Weather in Sidon — Graph

°F

Sidon temperature yesterday

Maximum temperature yesterday: 88 °F (at 12:00 PM)
Minimum temperature yesterday: 82 °F (at 12:00 AM)
Average temperature yesterday: 85 °F

Past Weeks' High & Low Weather Summary

 TemperatureHumidityPressure
High88 °F (Aug 16, 2:00 PM)84% (Aug 23, 11:00 PM)29.98 "Hg (Aug 23, 11:00 PM)
Low77 °F (Aug 20, 7:00 AM)49% (Aug 21, 4:00 PM)29.62 "Hg (Aug 18, 3:00 AM)
Average83 °F68%29.80 "Hg
* Reported Aug 16 5:00 AM — Aug 31 5:00 AM, Sidon, Weather by CustomWeather, © 2014

Note: Actual official high and low records may vary slightly from our data, if they occured in-between our weather recording intervals... More about our weather records

Advertising

Sidon weather history for previous 24 hours

 ConditionsComfort  
Time TempWeatherWind HumidityBarometerVisibility
5:00 AM
Aug 31
82 °FPassing clouds.5 mph79%29.80 "Hg4 mi
4:00 AM82 °FPassing clouds.6 mph79%29.80 "Hg4 mi
3:00 AM82 °FPassing clouds.5 mph79%29.80 "Hg4 mi
2:00 AM84 °FPassing clouds.6 mph74%29.80 "Hg4 mi
1:00 AM84 °FPassing clouds.7 mph74%29.80 "Hg4 mi
12:00 AM84 °FPassing clouds.7 mph74%29.80 "Hg4 mi
11:00 PM
Aug 30
84 °FPassing clouds.3 mph74%29.80 "Hg4 mi
10:00 PM84 °FPassing clouds.5 mph74%29.80 "Hg4 mi
9:00 PM84 °FPassing clouds.6 mph74%29.80 "Hg4 mi
8:00 PM84 °FPartly sunny.8 mph70%29.80 "Hg4 mi
7:00 PM86 °FPartly sunny.9 mph66%29.80 "Hg4 mi
6:00 PM86 °FScattered clouds.9 mph66%29.80 "Hg4 mi
5:00 PM88 °FPartly sunny.12 mph66%29.80 "Hg4 mi
4:00 PM88 °FPartly sunny.12 mph62%29.80 "Hg4 mi
3:00 PM88 °FPartly sunny.10 mph66%29.83 "Hg4 mi
2:00 PM86 °FPartly sunny.10 mph66%29.83 "Hg4 mi
1:00 PM88 °FPartly sunny.9 mph62%29.83 "Hg4 mi
12:00 PM88 °FPartly sunny.8 mph66%29.83 "Hg4 mi
11:00 AM86 °FPartly sunny.6 mph66%29.86 "Hg4 mi
10:00 AM86 °FPartly sunny.6 mph66%29.86 "Hg4 mi
9:00 AM84 °FPartly sunny.3 mph70%29.86 "Hg4 mi
8:00 AM82 °FPassing clouds.2 mph70%29.83 "Hg4 mi
7:00 AM82 °FPassing clouds.5 mph66%29.83 "Hg5 mi
6:00 AM82 °FPassing clouds.5 mph66%29.83 "Hg5 mi
Weather by CustomWeather, © 2014

See weather overviewHow to use our weather pages